Regional Weather Roundup
Issued by NWS Midland/Odessa, TX

Skip options and go directly to product.
Home | Oldest Version | Next Version | Current Version | All | Text Only | Save Text | Print | Product List | Glossary On

Skip product version selection by date and time.   
988
ASUS44 KMAF 291010
RWRMAF
MIDLAND AREA WEATHER ROUNDUP
NATIONAL WEATHER SERVICE MIDLAND TX
500 AM CDT SUN MAY 29 2016

...IN SOUTHWEST TEXAS AND SOUTHEAST NEW MEXICO...

CITY           SKY/WX    TMP DP  RH WIND       PRES   REMARKS
ALPINE         CLEAR     62  56  80 SW6       30.11R
ANDREWS        CLOUDY    65  60  86 SE14      30.06R
ARTESIA        CLEAR     61  34  36 W3        30.02R
BIG SPRING     CLEAR     62  59  89 E16G24    30.07R
CARLSBAD       CLEAR     71  62  73 E9        29.99R
DRYDEN           N/A     71  69  93 E23G30    29.96R
FORT STOCKTON  NOT AVBL
GUAD PASS      NOT AVBL
HOBBS          MOCLDY    64  64 100 E15G24    30.06R
MARFA          CLEAR     54  49  83 N7        30.10R
MIDLAND AIRPK  CLOUDY    70  62  75 E12       30.05S
MIDLAND INTL   MOCLDY    73  59  61 E18       30.03R
ODESSA         MOCLDY    72  59  63 SE18      30.04R
PECOS          PTCLDY    72  65  78 E13       29.95R
PRESIDIO       FAIR      77  61  56 N8G16     29.93R
SEMINOLE       MOCLDY    63  57  80 SE13      30.07R
SNYDER           N/A     63  58  83 SE10      30.06S
WINK           NOT AVBL
$$
...OTHER STATIONS IN TEXAS...

CITY           SKY/WX    TMP DP  RH WIND       PRES   REMARKS
ABILENE        CLOUDY    66  63  90 E15       30.06F
AMARILLO       CLEAR     57  51  80 SE15      30.09R
AUSTIN         TSTM      74  73  97 W7        30.07R
BROWNSVILLE    CLEAR     79  77  94 SE9       29.91S
CORPUS CHRISTI MOCLDY    79  75  87 E8        29.98R
DALLAS FTW     CLOUDY    75  57  53 NW14G22   30.07R
DEL RIO        CLEAR     70  66  87 E17G29    29.94S
EL PASO        CLOUDY    78   1   5 NW5       30.03R
HOUSTON INT    CLOUDY    71  71 100 CALM      30.04R
LUBBOCK        PTCLDY    63  54  72 SE16      30.08R
SAN ANGELO     CLOUDY    70  63  78 NE15      30.07R
SAN ANTONIO    TSTM      71  69  93 N9G23     30.09R VSB 1/2
WACO           CLOUDY    73  70  90 NE3       30.04R
WICHITA FALLS  NOT AVBL
$$
...OTHER LOCATIONS IN NEW MEXICO...

CITY           SKY/WX    TMP DP  RH WIND       PRES   REMARKS
ALAMAGORDO     PTCLDY    63  10  13 NE7       30.06S
ALBUQUERQUE    PTCLDY    59  17  19 CALM      30.10R
CANNON AFB     MOCLDY    57  50  77 S2        30.12R
CLOVIS         MOCLDY    55  46  71 SE7       30.12R
HOLLOMAN AFB   CLOUDY    59  16  18 E9        30.03S
ROSWELL        CLEAR     62  35  36 N6        30.03R
RUIDOSO          N/A     54   9  16 CALM      30.22S
SANTA FE       CLOUDY    50  21  32 NE10      30.16S
TRUTH OR CONSE CLEAR     57   9  14 W7        30.06R
TUCUMCARI      CLEAR     61  48  62 S6        30.07R
$$

USA.gov is the U.S. government's official web portal to all federal, state and local government web resources and services.